Regional Weather Roundup
Issued by NWS Charleston, SC

Current Version | Previous Version | Graphics & Text | Print | Product List | Glossary On
Versions: 1 2 3 4 5 6 7 8 9 10 11 12 13 14 15 16 17 18 19 20 21 22 23 24 25 26 27 28 29 30 31 32 33 34 35 36 37 38 39 40 41 42 43 44 45 46 47 48 49 50
000
ASUS42 KCHS 180125
RWRCHS

REGIONAL WEATHER ROUNDUP
NATIONAL WEATHER SERVICE CHARLESTON SC
800 PM EST WED DEC 17 2014

NOTE: "FAIR" INDICATES FEW OR NO CLOUDS BELOW 12,000 FEET WITH NO
SIGNIFICANT WEATHER AND/OR OBSTRUCTIONS TO VISIBILITY.

NOT ALL STATIONS ARE QUALITY CONTROLLED BY THE NATIONAL
WEATHER SERVICE. USE DATA WITH CAUTION...ESPECIALLY
DEWPOINT OBSERVATIONS.

SCZ027-030-031-034>040-042>050-180200-
...SOUTHEAST SOUTH CAROLINA...

CITY           SKY/WX    TMP DP  RH WIND       PRES   REMARKS
N CHARLESTON   PTCLDY    47  41  80 SW3       30.12R
WATERFRONT PRK   N/A     52 N/A N/A SW6         N/A
MOUNT PLEASANT FAIR      45  45 100 CALM      30.12S
PINOPOLIS        N/A     54  45  71 CALM      30.03R
MONCKS CORNER  FAIR      45  43  93 CALM      30.11S
SUMMERVILLE    NOT AVBL
BEAUFORT MCAS  PTCLDY    49  45  86 CALM      30.12S
BEAUFORT ARPT  FAIR      46  45  93 CALM      30.12F
HILTON HEAD IS PTCLDY    46  45  93 CALM      30.14S
WALTERBORO     PTCLDY    45  45 100 CALM      30.13R
ALLENDALE      FAIR      46  41  81 CALM      30.12R

...SOUTHERN MIDLANDS AND PEE DEE...

CITY           SKY/WX    TMP DP  RH WIND       PRES   REMARKS
GEORGETOWN     NOT AVBL
KINGSTREE      NOT AVBL
ORANGEBURG     PTCLDY    47  39  74 CALM      30.11S
BARNWELL         N/A     43  39  87 CALM      30.11F
AIKEN          FAIR      43  37  81 CALM      30.14S
MANNING        NOT AVBL
COLUMBIA       MOCLDY    45  39  79 S3        30.10R
SUMTER         MOCLDY    46  39  76 SW2       30.08S
FLORENCE       PTCLDY    47  40  76 CALM      30.09S
MYRTLE BEACH   CLEAR     46  41  81 SW6       30.12R
N MYRTLE BEACH CLEAR     47  43  86 SW3       30.09S

$$

GAZ063-065-086>088-099>101-113>116-118-119-134>141-150-180200-
...SOUTHEAST GEORGIA...

CITY           SKY/WX    TMP DP  RH WIND       PRES   REMARKS
SAVANNAH ARPT  MOCLDY    50  42  74 CALM      30.14R
HUNTER AAF     MOCLDY    49  43  81 W3        30.11R
FORT STEWART   MOCLDY    47  43  85 CALM      30.13R
STATESBORO     PTCLDY    41  41 100 CALM      30.13S
SYLVANIA       PTCLDY    44  44  99 CALM      30.14R
CLAXTON        FAIR      43  43 100 CALM      30.14S

...CSRA...CENTRAL AND FAR SOUTHEAST GEORGIA...

CITY           SKY/WX    TMP DP  RH WIND       PRES   REMARKS
THOMSON        PTCLDY    44  44  99 W3        30.16S
AUGUSTA-BUSH   PTCLDY    43  38  82 CALM      30.12R
AUGUSTA-DANIEL PTCLDY    54  40  59 CALM      30.11S
SWAINSBORO     FAIR      45  45 100 CALM      30.14S
VIDALIA        CLEAR     46  43  87 CALM      30.14S
EASTMAN        FAIR      43  43 100 CALM      30.17S
HAZLEHURST     FAIR      48  47  95 CALM      30.14S
ALMA           MOCLDY    45  42  89 CALM      30.15R
WAYCROSS       CLOUDY    50  46  86 W3        30.15S
JESUP          FAIR      48  45  87 NW3       30.14F
BAXLEY         FAIR      50  45  81 CALM      30.14S
BRUNSWICK      MOCLDY    50  43  76 CALM      30.15R
SAINT SIMONS   PTCLDY    51  45  79 W5        30.15R

$$

SCZ027-028-034-036>038-045-046-048>050-GAZ119-141-180200-
...LAKE AND SUPPLEMENTAL COASTAL OBSERVATIONS...

STATION/POSITION TIME  TEMP    WIND        PRES    WAVE   SWELL
                       AIR SEA DIR/SP/G            HT/PER HT/PER/DIR
                 (UTC) (F)     (DEG/KT/KT) (MB)    (FT/S) (FT/S/D)
UPR LAKE MARION  NOT AVBL
WINYAH BAY       0100   48     270/  1     1018.0S
LAKE MURRAY      0000   52     270/  1/  3 1018.6S
ACE BASIN NERRS  0100   46        CALM     1020.0S
FORT PULASKI     0100   52 57  210/  5/  6 1020.7R
SAPELO ISLAND    0100   53     280/  4     1020.0S

$$

ANZ835-935-AMZ111-154-330-350-352-354-370-450-454-472-180200-
...C-MAN AND BUOY OBSERVATIONS...

STATION/POSITION TIME  TEMP    WIND        PRES    WAVE   SWELL
                       AIR SEA DIR/SP/G            HT/PER HT/PER/DIR
                 (UTC) (F)     (DEG/KT/KT) (MB)    (FT/S) (FT/S/D)
BUOY 41004       0100   61 73  280/  8/ 10 1019.5R   2/11   2/11
BUOY 41008       0100   57 58  230/  8/ 10 1020.3R   1/11   2/120/11
FOLLY BEACH CMAN 0100   53     240/  5/  6 1020.3R
CAPERS NEARSHORE 0000   55     230/  8/ 10   N/A
FRIPP NEARSHORE  NOT AVBL


STATION/POSITION TIME  TEMP    WIND        PRES    WAVE   SWELL
                       AIR SEA DIR/SP/G            HT/PER HT/PER/DIR
                 (UTC) (F)     (DEG/KT/KT) (MB)    (FT/S) (FT/S/D)
5E ST. MARYS GA  0100      60                N/A     1/11
FRYING PAN BUOY  0100   59 65  260/  8/ 10 1019.7S   2/ 5   2/180/ 5
BUOY 41025       0100   58                 1018.0R   3/ 7
CAPE LOOKOUT NC  0100   56     250/ 11/ 13 1018.1R
BUOY 41002       0033   67 73  290/  4/  8 1019.4R   6/ 7   5/300/ 7
BUOY 41010       0100   70 76  290/  8/ 14 1020.1S   3/ 5   2/280/ 5
ST AUGUSTINE FL  0100   60     160/  1/  2 1020.8F


$$



USA.gov is the U.S. government's official web portal to all federal, state and local government web resources and services.